Hickory, NC

10:26 AM EDT on April 30, 2017 (GMT -0400)
Hickory Regional

Weather History for KHKY - January, 2014

Change the Weather History Date:

Tuesday, January 14, 2014

  Actual Average Record
Temperature  
Mean Temperature 47 °F -  
Max Temperature 57 °F 46 °F 70 °F (2007)
Min Temperature 35 °F 26 °F 12 °F (1964)
Degree Days  
Heating Degree Days 18    
Moisture  
Dew Point 39 °F    
Average Humidity 81    
Maximum Humidity 100    
Minimum Humidity 29    
Precipitation  
Precipitation 0.14 in - - ()
Sea Level Pressure  
Sea Level Pressure 29.83 in    
Wind  
Wind Speed 2 mph (WNW)    
Max Wind Speed 12 mph    
Max Gust Speed -    
Visibility 5 miles    
Events Fog , Rain    
Averages and records for this station are not official NWS values.
T = Trace of Precipitation, MM = Missing Value Source: NWS Daily Summary

Daily Weather History Graph

Daily Weather History Graph

Search for Another Location

Airport or City:

Trip Planner

Search our weather history database for the weather conditions in past years. The results will help you decide how hot, cold, wet, or windy it might be!

Date:

Astronomy

Jan. 14, 2014 Rise Set
Actual Time 7:35 AM EST 5:34 PM EST
Civil Twilight 7:07 AM EST 6:02 PM EST
Nautical Twilight 6:35 AM EST 6:33 PM EST
Astronomical Twilight 6:05 AM EST 7:04 PM EST
Moon 4:37 PM EST (1/14) 6:09 AM EST (1/14)
Length of Visible Light 10h 55m
Length of Day
9h 59m
Waxing Gibbous, 98% of the Moon is Illuminated
Jan 14
Waxing Gibbous
Jan 15
Full
Jan 24
Last Quarter
Jan 30
New
Feb 6
First Quarter

Hourly Weather History & Observations

Time (EST) Temp. Windchill Dew Point Humidity Pressure Visibility Wind Dir Wind Speed Gust Speed Precip Events Conditions
12:53 AM 44.1 °F - 41.0 °F 89% 29.86 in 6.0 mi Calm Calm - 0.00 in   Overcast
1:09 AM 44.6 °F - 41.0 °F 87% 29.88 in 4.0 mi Calm Calm - 0.01 in Rain Light Rain
1:31 AM 44.6 °F - 41.0 °F 87% 29.88 in 5.0 mi Calm Calm - 0.02 in Rain Light Rain
1:50 AM 44.6 °F - 41.0 °F 87% 29.87 in 2.5 mi Calm Calm - 0.02 in Rain Light Rain
1:53 AM 44.1 °F - 42.1 °F 93% 29.83 in 2.5 mi Calm Calm - 0.02 in Rain Light Rain
2:11 AM 44.6 °F - 42.8 °F 93% 29.86 in 2.5 mi Calm Calm - 0.01 in Rain Light Rain
2:28 AM 44.6 °F - 42.8 °F 93% 29.85 in 2.0 mi Calm Calm - 0.03 in Rain Light Rain
2:49 AM 44.6 °F - 42.8 °F 93% 29.84 in 2.5 mi Calm Calm - 0.04 in Rain Light Rain
2:53 AM 44.1 °F - 42.1 °F 93% 29.81 in 2.0 mi Calm Calm - 0.04 in Rain Light Rain
3:07 AM 44.6 °F - 42.8 °F 93% 29.84 in 2.0 mi Calm Calm - 0.00 in   Overcast
3:24 AM 44.6 °F - 42.8 °F 93% 29.83 in 1.5 mi Calm Calm - 0.00 in Rain Light Rain
3:53 AM 44.1 °F - 42.1 °F 93% 29.78 in 0.8 mi Calm Calm - 0.00 in   Mist
4:10 AM 44.6 °F 43.1 °F 42.8 °F 93% 29.82 in 1.5 mi South 3.5 mph - N/A   Overcast
4:18 AM 44.6 °F 43.1 °F 42.8 °F 93% 29.82 in 3.0 mi South 3.5 mph - N/A   Overcast
4:53 AM 44.1 °F 42.5 °F 43.0 °F 96% 29.78 in 3.0 mi South 3.5 mph - N/A   Overcast
5:07 AM 44.6 °F 43.1 °F 42.8 °F 93% 29.80 in 2.5 mi South 3.5 mph - 0.00 in Rain Light Rain
5:21 AM 44.6 °F - 42.8 °F 93% 29.80 in 1.2 mi Calm Calm - 0.00 in Rain Light Rain
5:32 AM 44.6 °F - 42.8 °F 93% 29.80 in 0.8 mi Calm Calm - 0.00 in Rain Light Rain
5:50 AM 44.6 °F - 42.8 °F 93% 29.80 in 1.0 mi Calm Calm - 0.01 in Rain Light Rain
5:53 AM 44.1 °F - 43.0 °F 96% 29.77 in 1.0 mi Calm Calm - 0.01 in Rain Light Rain
6:53 AM 44.1 °F - 43.0 °F 96% 29.76 in 1.0 mi Calm Calm - 0.00 in Rain Light Rain
7:12 AM 44.6 °F 43.1 °F 42.8 °F 93% 29.78 in 2.5 mi NW 3.5 mph - 0.01 in Rain Light Rain
7:43 AM 44.6 °F - 42.8 °F 93% 29.80 in 3.0 mi Calm Calm - 0.01 in Rain Light Rain
7:53 AM 44.1 °F - 43.0 °F 96% 29.78 in 3.0 mi Calm Calm - 0.02 in Rain Light Rain
8:21 AM 44.6 °F 43.1 °F 42.8 °F 93% 29.80 in 1.8 mi NNW 3.5 mph - 0.01 in Rain Light Rain
8:33 AM 44.6 °F - 42.8 °F 93% 29.80 in 0.5 mi Calm Calm - 0.01 in Fog , Rain Light Rain
8:53 AM 44.1 °F - 43.0 °F 96% 29.78 in 0.5 mi Calm Calm - 0.01 in Fog Fog
8:59 AM 44.6 °F - 42.8 °F 93% 29.82 in 1.0 mi Calm Calm - N/A   Overcast
9:08 AM 44.6 °F 41.4 °F 42.8 °F 93% 29.84 in 1.2 mi West 5.8 mph - 0.01 in Rain Light Rain
9:16 AM 44.6 °F 43.1 °F 42.8 °F 93% 29.81 in 2.0 mi NNW 3.5 mph - 0.01 in Rain Rain
9:23 AM 44.6 °F 42.2 °F 42.8 °F 93% 29.83 in 2.5 mi WNW 4.6 mph - 0.02 in Rain Light Rain
9:28 AM 44.6 °F 41.4 °F 42.8 °F 93% 29.85 in 4.0 mi West 5.8 mph - 0.02 in Rain Light Rain
9:39 AM 44.6 °F 42.2 °F 42.8 °F 93% 29.86 in 3.0 mi WSW 4.6 mph - 0.02 in Rain Light Rain
9:47 AM 44.6 °F 41.4 °F 42.8 °F 93% 29.85 in 3.0 mi NW 5.8 mph - 0.03 in Rain Light Rain
9:48 AM 45.0 °F 41.8 °F 43.0 °F 93% 29.83 in 3.0 mi NNW 5.8 mph - 0.03 in Rain Light Rain
10:14 AM 44.6 °F 42.2 °F 44.6 °F 100% 29.84 in 5.0 mi NNW 4.6 mph - 0.01 in   Overcast
10:21 AM 46.4 °F 44.3 °F 44.6 °F 93% 29.83 in 8.0 mi NNW 4.6 mph - 0.01 in   Overcast
10:53 AM 48.0 °F - 45.0 °F 89% 29.78 in 10.0 mi NNE 6.9 mph - 0.01 in   Mostly Cloudy
11:53 AM 52.0 °F - 43.0 °F 71% 29.79 in 10.0 mi Calm Calm - N/A   Clear
12:53 PM 54.0 °F - 39.9 °F 59% 29.80 in 10.0 mi Variable 4.6 mph - N/A   Partly Cloudy
1:53 PM 57.0 °F - 34.0 °F 42% 29.79 in 10.0 mi WNW 8.1 mph - N/A   Clear
2:53 PM 57.9 °F - 28.9 °F 33% 29.80 in 10.0 mi West 11.5 mph - N/A   Partly Cloudy
3:53 PM 57.0 °F - 25.0 °F 29% 29.83 in 10.0 mi West 9.2 mph - N/A   Clear
4:53 PM 54.0 °F - 25.0 °F 33% 29.85 in 10.0 mi West 6.9 mph - N/A   Clear
5:53 PM 52.0 °F - 24.1 °F 34% 29.87 in 10.0 mi Calm Calm - N/A   Clear
6:53 PM 50.0 °F - 23.0 °F 35% 29.89 in 10.0 mi Calm Calm - N/A   Clear
7:53 PM 48.0 °F - 23.0 °F 37% 29.91 in 10.0 mi WNW 4.6 mph - N/A   Clear
8:53 PM 44.1 °F 42.5 °F 25.0 °F 47% 29.93 in 10.0 mi North 3.5 mph - N/A   Clear
9:53 PM 44.1 °F - 25.0 °F 47% 29.93 in 10.0 mi Calm Calm - N/A   Clear
10:53 PM 37.0 °F - 28.0 °F 70% 29.92 in 10.0 mi Calm Calm - N/A   Clear
11:53 PM 35.1 °F 32.2 °F 27.0 °F 72% 29.91 in 10.0 mi North 3.5 mph - N/A   Clear